Regional Weather Roundup
Issued by NWS

Home | Current Version | Previous Version | Text Only | Print | Product List | Glossary Off
Versions: 1 2 3 4 5 6 7 8 9 10 11 12 13 14 15 16 17 18 19 20 21 22 23 24 25 26 27 28 29 30 31 32 33 34 35 36 37 38 39 40 41 42 43 44 45 46 47 48 49 50

000
ASUS43 KMKX 261400
RWRWI

WISCONSIN REGIONAL WEATHER ROUNDUP
NATIONAL WEATHER SERVICE MILWAUKEE/SULLIVAN WI
800 AM CST MON JAN 26 2015

NOTE: "FAIR" INDICATES FEW OR NO CLOUDS BELOW 12,000 FEET WITH NO
SIGNIFICANT WEATHER AND/OR OBSTRUCTIONS TO VISIBILITY.

WIZ001-002-006>008-014>016-023>028-261500-
NORTHWEST WISCONSIN

CITY           SKY/WX    TMP DP  RH WIND       PRES   REMARKS
SUPERIOR ARPT  CLOUDY    22  21  96 SW7       29.68F FOG     WCI  14
ASHLAND        LGT SNOW  20  16  84 S6        29.71F FOG     WCI  12
HAYWARD        LGT SNOW  18  14  84 S10       29.69F FOG     WCI   6
SIREN          CLOUDY    24  22  93 SE5       29.70S FOG     WCI  18
CUMBERLAND     CLOUDY    21  19  93 SE7       29.70F WCI  13
RICE LAKE      CLOUDY    21  18  90 SE9       29.74F WCI  10
CHETEK         CLOUDY    20  17  90 SE7       29.73F WCI  11
LADYSMITH      LGT SNOW  18  15  87 S12       29.77F WCI   5
EAU CLAIRE     NOT AVBL
MENOMONIE      CLOUDY    23  21  91 E7        29.75F WCI  15
NEW RICHMOND   CLOUDY    26  25  96 S8        29.71F WCI  17
OSCEOLA        CLOUDY    27  27 100 S5        29.74F WCI  21
$$

WIZ003>005-009-010-017-018-261500-
NORTH CENTRAL WISCONSIN

CITY           SKY/WX    TMP DP  RH WIND       PRES   REMARKS
MANITOWISH WTR LGT SNOW  13   9  84 S10       29.72F WCI   0
ARBOR VITAE    FLURRIES  17  10  73 S8        29.74F WCI   6
WOODRUFF       FLURRIES  17  10  73 S8        29.74F WCI   6
RHINELANDER    FLURRIES  13   6  74 S7        29.76F WCI   3
EAGLE RIVER    MOCLDY    13   7  76 S8        29.75F WCI   2
LAND O LAKES   CLOUDY    13   8  80 S7        29.75F WCI   3
PHILLIPS       FLURRIES  15  11  85 S8        29.74F WCI   4
TOMAHAWK       LGT SNOW  13   9  81 CALM      29.78F
MEDFORD        CLOUDY    14  11  86 S12       29.76F WCI   1
MERRILL        LGT SNOW  15  10  80 S3        29.80F
$$

WIZ029-030-035-036-043>047-261500-
CENTRAL WISCONSIN

CITY           SKY/WX    TMP DP  RH WIND       PRES   REMARKS
WAUSAU         LGT SNOW  14  10  84 S8        29.81F FOG     WCI   3
MOSINEE        LGT SNOW  14  10  85 SE8       29.83F VSB 1   WCI   3
MARSHFIELD     LGT SNOW  17  12  80 S8        29.80S WCI   7
STEVENS POINT  CLOUDY    15   8  76 S6        29.85F WCI   6
WAUPACA        CLOUDY    17  11  75 SE5       29.90F WCI  10
WAUTOMA        NOT AVBL
WISC RAPIDS    LGT SNOW  17   9  70 S8        29.85F WCI   7
CAMP DOUGLAS   LGT SNOW  18  18 100 SE8       29.85F FOG     WCI   7
$$

WIZ011>013-019>022-031-037>040-048>050-261500-
NORTHEAST WISCONSIN

CITY           SKY/WX    TMP DP  RH WIND       PRES   REMARKS
ANTIGO         CLOUDY    12   6  76 S12       29.81F WCI  -2
SHAWANO        CLOUDY    16  11  80 CALM      29.91F
OCONTO         MOCLDY     9   7  93 CALM      29.93F
STURGEON BAY   CLOUDY    12   9  85 CALM      29.94F
GREEN BAY      CLOUDY    14  10  84 CALM      29.93F
MANITOWOC      PTCLDY    16  12  86 CALM      29.94F
APPLETON       MOCLDY    16   9  73 VRB3      29.90F
CLINTONVILLE   CLOUDY    14  10  85 SE3       29.91S
OSHKOSH        CLOUDY    16  10  77 S7        29.91F WCI   6
$$

WIZ032>034-041-042-053>061-261500-
SOUTHWEST WISCONSIN

CITY           SKY/WX    TMP DP  RH WIND       PRES   REMARKS
LA CROSSE      LGT SNOW  23  19  85 S14       29.82F FOG     WCI  11
SPARTA         LGT SNOW  19  17  88 CALM      29.86F VSB 3/4
VIROQUA        CLOUDY    18  17  93 S8        29.83S VSB 3/4 WCI   8
BOSCOBEL       SNOW      21  17  84 S5        29.90S VSB 1/2 WCI  15
PRAIRIE DU CHI FLURRIES  22  17  83 E5        29.89S WCI  15
PLATTEVILLE    CLOUDY    18  15  86 SE9       29.89F WCI   7
$$

WIZ056-057-062-063-064-067-068-261500-
SOUTH CENTRAL WISCONSIN

CITY           SKY/WX    TMP DP  RH WIND       PRES   REMARKS
REEDSBURG      LGT SNOW  18  13  79 S6        29.89F WCI  10
BARABOO/DELLS  CLOUDY    19  13  79 S7        29.89F WCI   9
LONE ROCK      LGT SNOW  18  14  84 E7        29.91F VSB 3/4 WCI   9
MINERAL POINT  FLURRIES  19  14  79 SE6       29.88F WCI  11
MADISON        CLOUDY    18  10  71 S8        29.92F WCI   8
MIDDLETON      CLOUDY    20  12  71 S5        29.92F WCI  13
WATERTOWN      CLOUDY    15  11  87 CALM      29.93S
MONROE         CLOUDY    18  14  86 S6        29.91S WCI   9
JANESVILLE     MOCLDY    18  12  79 CALM      29.94F
$$

WIZ051-052-058>065-066-070>072-261500-
SOUTHEAST WISCONSIN

CITY           SKY/WX    TMP DP  RH WIND       PRES   REMARKS
MILWAUKEE      MOCLDY    20  12  71 CALM      29.95S
WAUKESHA       MOCLDY    12  10  92 CALM      29.95S
MILWAUKEE/TIMM CLOUDY    16  10  79 CALM      29.96S
RACINE         MOCLDY    17  12  80 W3        29.97R
BURLINGTON     PTCLDY    12  10  91 CALM      29.95S
KENOSHA        MOCLDY    16  12  84 W5        29.95S WCI   9
FOND DU LAC    CLOUDY    16  10  77 S3        29.92F
SHEBOYGAN      PTCLDY    14  10  84 CALM      29.93F
WEST BEND      CLOUDY    14  10  85 CALM      29.93S
JUNEAU         CLOUDY    15  10  83 CALM      29.93F
$$

LSZ147-162-261500-
LAKE SUPERIOR

STATION/POSITION TIME  TEMP    WIND        PRES    WAVE
                       AIR SEA DIR/SP/G            HT/PER
                 (UTC) (F)     (DEG/KT/KT) (MB)    (FT/S)
DEVILS ISLAND    1300   21     160/ 11/ 18 1007.5F
PORT WING        1300   21     190/  9/ 13 1005.8
SAXON HARBOR     1320   20     180/  5/ 13 1006.8F
$$

LMZ867-665-643>646-261500-
LAKE MICHIGAN

STATION/POSITION TIME  TEMP    WIND        PRES    WAVE
                       AIR SEA DIR/SP/G            HT/PER
                 (UTC) (F)     (DEG/KT/KT) (MB)    (FT/S)
NORTHPORT PIER   1315   16     230/  2/  4 1014.2F
SISTER BAY       1313   13        CALM       N/A
KEWAUNEE LAKESHO 1300   15     290/  2/  5 1013.3F
SHEBOYGAN LAKESH 1300   20     250/  4/  4 1015.4F
PORT WASHINGTON  1340   19        CALM     1015.2S
MILWAUKEE LAKESH 1300   21     300/  3/  4   N/A
KENOSHA   LAKESH 1300   18     280/  5/  7 1014.6S
$$

TC  - TEMPERATURE IN CELSIUS
VSB - VISIBILITY IN STATUTE MILES
WCI - WIND CHILL INDEX
HX  - HEAT INDEX




USA.gov is the U.S. government's official web portal to all federal, state and local government web resources and services.